#timestamp,LO_Frequency,Hit,StdDev 
1629280815.5,286047001.7,N
1629280835.4,286047005.8,N
1629280855.2,286046999.9,N
1629280875.0,286047002.6,N
1629280875.9,286047002.6,N
1629280895.8,286047001.8,N
1629280915.6,286047000.5,N
1629280935.4,286046997.8,N
1629280955.3,286046996.2,N
1629280975.1,286046997.6,N
1629280995.9,286046998.7,N
1629281015.7,286047003.1,N
1629281035.5,286047008.6,N
1629281055.4,286047004.9,N
1629281075.2,286047002.7,N
1629281095.1,286046998.5,N
1629281096.0,286046998.5,N
1629281115.8,286046996.8,N
1629281135.6,286046995.4,N
1629281155.5,286047001.4,N
1629281175.3,286046998.2,N
1629281195.1,286046995.2,N
1629281215.9,286046999.9,N
1629281235.7,286047001.7,N
1629281255.6,286047000.6,N
1629281275.4,286046999.5,N
1629281295.2,286046995.3,N
1629281315.1,286046999.3,N
1629281316.0,286046999.3,N
1629281335.8,286046994.8,N
1629281355.6,286046994.5,N
1629281375.5,286046991.0,N
1629281395.3,286046991.4,N
1629281415.2,286046987.5,Y
1629281435.0,286046985.3,P
1629281435.9,286046985.3,N
1629281455.7,286046986.6,N
1629281475.6,286046986.3,N
1629281495.4,286046984.3,N
1629281515.3,286046984.2,Y
1629281535.1,286046995.9,P
1629281555.8,286046996.0,N
1629281575.7,286046996.2,N
1629281595.5,286046997.2,N
1629281615.4,286046995.4,N
1629281635.2,286046997.1,N
1629281655.0,286046998.8,N
1629281655.9,286046998.8,N
1629281675.8,286047000.3,N
1629281695.6,286047000.3,N
1629281715.4,286047002.5,N
1629281735.3,286047005.0,N
1629281755.1,286047006.2,N
1629281775.9,286047007.4,N
1629281795.7,286047005.0,N
1629281815.5,286047003.7,N
1629281835.4,286047003.9,N
1629281855.2,286047005.5,N
1629281875.0,286047001.3,N
1629281875.9,286047001.3,N
1629281895.8,286047002.1,N
1629281915.6,286047003.9,N
1629281935.5,286047001.7,N
1629281955.3,286047000.5,N
1629281975.1,286046999.5,N
1629281995.9,286046996.8,N
1629282015.7,286046996.1,N
1629282035.5,286046996.7,N
1629282055.4,286047001.2,N
1629282075.2,286046994.9,N
1629282095.1,286046996.2,N
1629282096.0,286046996.2,N
1629282115.8,286046999.2,N
1629282135.6,286047000.2,N
1629282155.5,286047002.6,N
1629282175.3,286047000.3,N
1629282195.1,286047002.4,N
1629282215.9,286047000.2,N
1629282235.7,286046995.0,N
1629282255.6,286046997.2,N
1629282275.4,286046999.0,N
1629282295.2,286047002.5,N
1629282315.1,286046998.8,N
1629282316.0,286046998.8,N
1629282335.8,286046995.6,N
1629282355.6,286046991.7,N
1629282375.5,286046992.2,N
1629282395.3,286046988.7,Y
1629282415.2,286046991.6,P
1629282435.9,286046988.7,P
1629282455.7,286046987.5,N
1629282475.6,286046988.6,N
1629282495.4,286046989.1,N
1629282515.2,286046989.2,N
1629282535.1,286046991.7,N
1629282536.0,286046991.7,N
1629282555.8,286046988.6,Y
1629282575.7,286046995.2,P
1629282595.5,286046993.6,N
1629282615.3,286046992.7,P
1629282635.2,286046990.5,Y
1629282655.0,286047002.3,P
1629282655.9,286047002.3,N
1629282675.8,286047007.4,N
1629282695.6,286047007.3,N
1629282715.4,286047004.1,N
1629282735.3,286047004.3,N
1629282755.1,286047003.1,N
1629282775.8,286047003.6,N
1629282795.7,286047005.6,N
1629282815.5,286047000.5,N
1629282835.4,286046995.1,N
1629282855.2,286046996.1,N
1629282875.0,286046991.7,N
1629282875.9,286046991.7,N
1629282895.8,286046996.0,N
1629282915.6,286046991.9,N
1629282935.4,286046990.4,N
1629282955.3,286046990.9,N
1629282975.1,286046993.8,N
1629282995.9,286046994.7,N
1629283015.7,286046993.7,N
1629283065.6,286046994.2,E
1629283075.5,286046995.0,N
1629283095.3,286046995.1,P
1629283115.2,286046998.0,P
1629283135.9,286046995.1,Y
1629283155.7,286046999.7,P
1629283175.6,286047005.4,N
1629283195.4,286047002.2,N
1629283215.2,286047000.4,N
1629283235.1,286047002.8,N
1629283236.0,286047002.8,N
1629283255.8,286047003.7,N
1629283275.7,286047004.8,N
1629283295.5,286046998.2,N
1629283315.3,286047001.3,N
1629283335.2,286047003.5,N
1629283355.0,286047004.8,N
1629283355.9,286047004.8,N
1629283375.7,286047005.2,N
1629283395.6,286047004.0,N
1629283415.4,286046999.7,N
1629283435.3,286047004.0,N
1629283455.1,286047000.3,N
1629283456.0,286047000.3,N
1629283475.8,286046998.1,N
1629283495.7,286046998.4,N
1629283515.5,286046998.1,N
1629283535.3,286047000.4,N
1629283555.2,286047004.0,N
1629283575.0,286047002.7,N
1629283575.9,286047002.7,N
1629283595.8,286047000.0,N
1629283615.6,286047002.5,N
1629283635.4,286047006.0,N
1629283655.3,286047005.9,N
1629283675.1,286047004.6,N
1629283695.8,286047000.0,N
1629283715.7,286046999.8,N
1629283735.5,286046999.5,N
1629283755.4,286046996.8,N
1629283775.2,286046995.4,N
1629283795.0,286046993.6,N
1629283795.9,286046993.6,N
1629283815.8,286046990.1,N
1629283835.6,286046989.9,N
1629283855.5,286046986.6,Y
1629283875.3,286046988.0,P
1629283895.1,286046987.4,N
1629283915.9,286046989.8,N
1629283935.7,286046985.3,N
1629283955.5,286046988.3,N
1629283975.4,286046986.9,N
1629283995.2,286046989.6,N
1629284015.0,286046994.7,N
1629284016.0,286046994.7,N
1629284035.8,286046998.5,N
1629284055.6,286047001.1,N
1629284075.5,286046996.8,N
1629284095.3,286046997.6,N
1629284115.1,286046997.7,N
1629284135.9,286046997.0,N
1629284155.7,286046992.1,N
1629284175.6,286046990.2,N
1629284195.4,286046992.5,N
1629284215.2,286046991.5,N
1629284235.1,286046987.2,N
1629284236.0,286046987.2,N
1629284255.8,286046984.9,Y
1629284275.6,286046994.1,P
1629284295.5,286046988.5,P
1629284315.3,286046986.9,P
1629284335.2,286046987.2,Y
1629284355.0,286046997.9,P
1629284355.9,286046997.9,N
1629284375.7,286046993.3,N
1629284395.6,286046992.6,N
